Toms River, NJ

9:05 PM EDT on October 16, 2019 (GMT -0400)
Miller

Weather History for KMJX - August, 2019

Change the Weather History Date:

Saturday, August 31, 2019

  Actual Average Record
Temperature  
Mean Temperature 71 °F -  
Max Temperature 84 °F 83 °F 98 °F (1973)
Min Temperature 57 °F 59 °F 38 °F (1965)
Cooling Degree Days 6    
Growing Degree Days 21 (Base 50)    
Moisture  
Dew Point 60 °F    
Average Humidity 57    
Maximum Humidity 100    
Minimum Humidity 44    
Precipitation  
Precipitation 0.00 in - - ()
Sea Level Pressure  
Sea Level Pressure 30.21 in    
Wind  
Wind Speed 5 mph (East)    
Max Wind Speed 12 mph    
Max Gust Speed -    
Visibility 10 miles    
Events      
Averages and records for this station are not official NWS values.
T = Trace of Precipitation, MM = Missing Value Source: NWS Daily Summary

Daily Weather History Graph

Daily Weather History Graph

Search for Another Location

Airport or City:

Astronomy

Aug. 31, 2019 Rise Set
Actual Time 6:23 AM EDT 7:30 PM EDT
Civil Twilight 5:56 AM EDT 7:58 PM EDT
Nautical Twilight 5:22 AM EDT 8:31 PM EDT
Astronomical Twilight 4:48 AM EDT 9:05 PM EDT
Moon 7:36 AM EDT (8/31) 8:42 PM EDT (8/31)
Length of Visible Light 14h 02m
Length of Day
13h 06m
New Moon, 2% of the Moon is Illuminated
Aug 31
New Moon
Sep 5
First Quarter
Sep 14
Full
Sep 21
Last Quarter
Sep 28
New

Hourly Weather History & Observations

Time (EDT) Temp. Heat Index Dew Point Humidity Pressure Visibility Wind Dir Wind Speed Gust Speed Precip Events Conditions
12:56 AM 68.0 °F - - N/A% 30.12 in 9.0 mi SW 5.8 mph - N/A   Clear
1:56 AM 66.9 °F - - N/A% 30.12 in 10.0 mi WSW 3.5 mph - N/A   Partly Cloudy
2:56 AM 66.9 °F - - N/A% 30.12 in 10.0 mi SW 3.5 mph - N/A   Partly Cloudy
3:56 AM 66.9 °F - - N/A% 30.13 in 10.0 mi WSW 4.6 mph - N/A   Partly Cloudy
4:56 AM - - - N/A% 30.14 in 10.0 mi WSW 4.6 mph - N/A   Clear
5:56 AM - - - N/A% 30.15 in 10.0 mi Calm Calm - N/A   Clear
6:56 AM - - - N/A% 30.17 in 10.0 mi North 3.5 mph - N/A   Clear
7:56 AM 69.1 °F - - N/A% 30.20 in 10.0 mi North 6.9 mph - N/A   Clear
8:56 AM 75.9 °F - 63.0 °F 64% 30.22 in 10.0 mi NE 8.1 mph - N/A   Clear
9:56 AM 78.1 °F - 59.0 °F 52% 30.23 in 10.0 mi NE 9.2 mph - N/A   Partly Cloudy
10:56 AM 79.0 °F - 55.9 °F 45% 30.24 in 10.0 mi NE 11.5 mph - N/A   Clear
11:56 AM 81.0 °F 81.0 °F 57.0 °F 44% 30.24 in 10.0 mi NE 5.8 mph - N/A   Clear
12:56 PM 81.0 °F 81.1 °F 57.9 °F 45% 30.23 in 10.0 mi NE 9.2 mph - N/A   Clear
1:56 PM 82.0 °F 82.1 °F 59.0 °F 45% 30.22 in 10.0 mi East 9.2 mph - N/A   Clear
2:56 PM 82.9 °F 83.2 °F 60.1 °F 46% 30.22 in 10.0 mi ESE 8.1 mph - N/A   Partly Cloudy
3:56 PM 80.1 °F 80.9 °F 60.1 °F 50% 30.22 in 10.0 mi ESE 8.1 mph - N/A   Mostly Cloudy
4:56 PM 80.1 °F 80.9 °F 60.1 °F 50% 30.21 in 10.0 mi East 6.9 mph - N/A   Overcast
5:56 PM 78.1 °F - 60.1 °F 54% 30.22 in 10.0 mi SE 5.8 mph - N/A   Scattered Clouds
6:56 PM 75.0 °F - 62.1 °F 64% 30.23 in 10.0 mi ESE 3.5 mph - N/A   Clear
7:56 PM 68.0 °F - 63.0 °F 84% 30.25 in 10.0 mi South 3.5 mph - N/A   Clear
8:56 PM 64.9 °F - 64.9 °F 100% 30.27 in 10.0 mi Calm Calm - N/A   Clear
9:56 PM 62.1 °F - - N/A% 30.27 in 10.0 mi Calm Calm - N/A   Clear
10:56 PM 60.1 °F - - N/A% 30.29 in 10.0 mi Calm Calm - N/A   Clear
11:56 PM 57.9 °F - - N/A% 30.30 in 10.0 mi Calm Calm - N/A   Clear